EHI
0 0 0 0 0 0 0 0 0 0 0 1 5 11 17 24 29 28 26 26 25 20 17 17 14 11 10 9 8 7 6 5 2 2 2 1 0 1 0 0 0 0 0 0
0 0 0 0 0 0 0 0 0 0 0 1 4 8 14 22 27 28 27 26 24 20 17 17 13 9 7 7 7 7 6 4 2 1 1 0 0 1 0 0 0 0 0 0
0 0 0 0 0 0 0 0 0 0 0 1 3 5 9 18 25 27 26 24 22 18 16 14 10 6 5 5 5 6 5 3 1 0 0 0 0 0 0 0 0 0 0 0
0 0 0 0 0 0 0 0 0 0 0 0 1 2 5 13 22 26 24 22 19 16 14 11 7 4 4 4 4 4 4 2 0 0 0 0 0 0 0 0 0 0 0 0
0 0 0 0 0 0 0 0 0 0 0 0 0 1 2 8 17 23 23 20 17 15 13 10 6 3 3 3 2 2 1 0 0 0 0 0 0 0 0 0 0 0 0 0
0 0 0 0 0 0 0 0 0 0 0 0 0 0 1 5 11 18 20 19 16 13 12 9 5 3 3 1 1 1 0 0 0 0 0 0 0 0 0 0 0 0 0 0
0 0 0 0 0 0 0 0 0 0 0 0 0 0 0 3 7 13 17 19 15 12 11 9 5 3 2 1 0 0 0 0 0 0 0 0 0 0 0 0 0 0 0 0
0 0 1 1 1 0 0 0 0 0 0 0 0 0 0 2 5 10 14 17 15 11 10 10 6 4 2 1 0 0 0 0 0 0 0 0 0 0 0 0 0 0 0 0
0 0 1 2 2 1 0 0 0 0 0 0 0 0 0 1 2 6 11 15 15 11 10 10 6 3 3 2 1 0 0 0 0 0 0 0 0 0 0 0 0 0 0 0
0 0 1 2 3 2 1 0 0 0 0 0 0 1 1 0 0 4 9 14 15 12 10 9 6 3 3 3 1 0 0 0 0 0 0 0 0 0 0 0 0 0 0 0
0 0 0 1 2 3 2 1 0 0 0 0 0 1 1 0 0 2 8 12 12 12 10 9 6 4 3 3 2 1 0 0 0 0 0 0 0 0 0 0 0 0 0 0
0 0 0 0 1 2 2 1 0 0 0 0 0 0 0 0 0 2 6 9 9 10 11 10 8 5 4 4 3 1 0 0 0 0 0 0 0 0 0 0 0 0 0 0
0 0 0 0 0 1 1 0 0 0 0 0 0 0 0 0 1 1 4 7 9 11 12 12 10 7 5 5 5 3 1 0 0 0 0 0 0 0 0 0 0 0 0 0
0 0 0 0 0 0 0 0 0 0 0 0 0 0 0 0 0 0 3 7 10 12 13 13 11 9 7 7 7 5 2 1 1 0 0 0 0 0 0 0 0 0 0 0
0 0 0 0 0 0 0 0 0 1 1 0 0 0 1 1 0 1 3 7 9 10 13 14 14 11 9 9 10 8 5 3 2 1 0 0 0 0 0 0 0 0 0 0
0 0 0 0 0 0 0 0 1 2 2 1 1 1 2 2 3 4 6 9 10 10 12 15 16 14 12 12 12 12 9 6 4 3 1 0 0 0 0 0 0 0 0 0
0 0 0 0 0 0 0 0 2 3 3 3 3 3 4 4 5 8 9 10 11 12 13 16 16 16 16 16 15 15 13 10 7 6 3 1 0 0 0 0 0 0 0 0
0 0 0 0 0 0 0 0 1 3 4 4 4 5 5 5 6 9 10 10 11 12 14 16 18 19 20 19 17 17 17 14 11 8 6 2 0 0 0 0 0 0 0 0
0 0 0 0 0 0 0 0 0 2 4 4 3 3 4 5 6 7 9 10 11 13 16 18 20 23 24 22 19 18 18 16 12 10 7 4 1 0 0 0 0 0 0 0
0 0 0 0 0 0 0 0 0 1 3 3 1 1 1 3 5 6 8 11 12 14 17 20 22 26 27 24 21 19 18 16 12 9 7 4 2 0 0 0 0 0 0 0
0 0 0 0 0 0 0 0 0 1 1 1 0 0 0 1 2 3 7 12 14 15 18 21 25 30 30 26 22 19 18 14 9 7 5 3 1 0 0 0 0 0 0 0
0 0 1 0 0 0 0 1 1 0 0 0 0 0 0 0 0 3 8 12 13 15 19 23 28 32 32 27 22 18 15 11 7 4 3 1 0 0 0 0 0 0 0 0
0 0 0 0 0 0 1 2 2 1 0 0 0 0 0 0 1 4 8 9 10 15 22 26 29 30 28 24 19 14 11 8 5 3 1 0 0 0 0 0 0 1 1 0
0 0 0 0 0 0 1 2 2 1 0 0 0 0 0 1 2 4 5 5 7 13 21 26 28 25 22 19 14 9 7 6 5 3 1 0 0 0 0 0 0 1 1 1
0 0 0 0 0 0 0 1 1 1 0 0 0 0 0 1 2 3 3 4 6 11 18 22 23 20 17 14 10 5 4 4 4 3 1 0 0 0 0 0 0 1 1 0
0 0 0 0 0 0 0 0 1 0 0 0 0 0 0 0 1 3 3 4 5 9 14 19 20 17 14 12 8 4 3 3 3 2 1 0 0 0 0 0 0 0 0 0
Wind_Speed
3 1 5 8 8 9 6 5 7 8 5 3 5 6 8 9 9 10 9 9 9 8 6 7 8 8 8 6 6 6 6 5 5 4 4 4 3 3 3 3 4 4 4 4
2 6 12 9 9 7 7 6 7 6 4 3 4 5 6 8 9 11 12 12 11 8 8 7 7 8 7 7 6 6 6 6 5 4 3 3 4 3 3 2 3 4 4 4
9 10 8 8 9 7 7 6 7 6 1 2 3 1 2 3 3 6 9 10 12 13 13 11 9 8 8 8 7 7 6 6 5 5 4 4 4 3 3 3 2 2 4 4
7 9 9 10 10 6 7 9 7 5 3 1 2 2 5 5 5 8 9 11 12 12 12 11 10 9 9 8 7 7 6 6 5 6 6 7 5 4 3 3 2 2 4 4
8 7 7 9 11 7 7 5 3 3 4 1 1 2 5 4 6 10 12 13 13 14 14 13 12 11 9 9 8 7 6 5 5 6 7 7 5 4 3 3 4 3 2 3
10 7 6 8 8 5 3 1 4 4 5 1 3 2 5 6 10 10 12 14 14 14 14 12 11 10 8 8 8 7 7 5 5 6 6 8 8 7 7 5 4 2 2 2
7 7 6 4 3 4 2 3 4 5 4 4 3 2 8 8 8 11 13 14 14 14 14 13 13 12 11 11 10 8 8 6 6 6 6 7 8 8 8 6 5 4 2 2
4 7 5 2 4 5 3 7 6 4 4 4 2 4 7 5 6 8 11 13 14 14 14 14 14 14 13 13 11 10 9 7 7 6 6 6 7 5 4 5 5 4 3 3
5 7 4 2 2 6 2 2 6 7 2 1 4 5 6 1 4 8 10 13 16 16 15 15 14 14 13 13 12 11 10 8 8 7 6 6 6 5 5 5 5 4 4 4
5 4 5 3 2 2 4 3 4 5 5 2 4 4 5 4 5 7 10 13 15 15 15 15 14 14 13 12 11 10 10 9 8 8 7 6 6 6 6 5 6 5 4 4
2 3 5 3 1 2 2 3 3 3 5 5 3 7 7 9 8 10 11 13 14 16 16 15 14 13 13 12 11 10 10 8 8 8 6 7 6 6 6 6 6 6 4 5
0 3 3 5 4 3 4 4 5 5 3 4 3 9 6 7 7 8 10 12 14 16 16 15 15 13 13 13 12 12 11 10 9 8 7 7 6 6 6 6 6 6 5 5
1 4 1 6 5 3 3 2 4 5 4 3 4 8 4 3 5 7 10 12 13 14 15 14 14 14 14 14 13 12 12 11 10 9 8 7 7 7 7 6 6 6 5 5
3 3 5 6 6 3 2 3 5 6 5 4 7 7 5 4 6 8 9 13 14 15 16 16 15 15 15 14 14 13 12 11 11 10 9 9 8 8 7 7 6 6 5 5
3 2 3 4 4 4 5 5 4 5 7 8 9 9 10 10 10 10 11 12 13 14 15 17 17 15 14 14 13 13 12 12 12 11 10 10 8 8 7 7 6 6 5 6
2 1 1 3 4 3 4 5 5 5 6 7 6 8 8 7 6 6 9 13 14 15 16 17 17 16 16 16 15 13 13 12 12 12 11 10 9 8 8 7 7 6 5 5
2 3 1 3 3 3 4 4 4 3 3 5 6 7 2 4 8 10 10 13 15 15 15 17 17 18 18 17 16 16 14 12 12 12 11 10 10 10 9 9 7 7 6 5
5 3 3 2 1 4 7 3 2 2 1 2 4 4 3 7 8 7 8 11 13 14 15 16 16 15 14 14 14 14 13 13 13 12 11 11 11 10 9 8 8 7 6 6
5 6 3 3 3 5 4 2 1 2 2 2 3 4 3 1 1 3 7 10 13 14 13 14 15 15 14 14 14 14 13 13 13 13 12 12 12 11 10 9 9 7 6 6
2 3 4 3 3 4 4 4 2 3 2 3 1 2 1 3 2 6 5 8 9 10 11 12 12 11 13 13 14 15 14 14 14 14 13 12 11 11 11 10 8 6 6 6
2 1 2 3 3 5 4 4 2 2 5 4 1 1 1 4 7 6 4 5 8 8 10 12 13 13 14 14 15 15 14 15 14 12 11 11 11 11 10 8 6 6 6 6
1 1 2 2 2 5 4 2 2 5 3 2 2 1 0 3 3 2 2 4 8 9 9 11 12 11 11 14 15 15 15 13 11 11 11 11 10 9 9 8 7 6 7 6
2 3 3 3 4 4 2 2 3 2 1 2 1 1 0 0 1 2 1 2 6 8 10 10 11 11 10 12 15 15 13 11 11 11 11 10 9 8 7 8 8 6 6 5
2 1 1 1 3 2 3 2 2 1 2 2 1 1 1 2 2 3 2 2 4 5 7 8 11 11 10 10 11 11 11 12 12 11 10 9 8 7 7 6 6 6 6 6
3 1 1 2 3 3 4 3 2 3 2 3 5 4 2 3 3 3 3 3 3 4 5 8 10 10 9 9 8 8 10 11 11 10 9 8 8 8 7 6 6 7 7 8
1 2 3 3 3 1 3 3 3 4 5 5 5 6 6 3 4 4 4 3 4 4 5 7 7 8 8 8 7 7 8 10 10 8 7 6 6 5 5 5 4 7 8 11
Wind_Direction
247 156 239 241 223 224 239 244 262 264 229 172 181 174 174 175 170 161 160 161 158 151 146 145 145 149 143 138 136 140 138 137 128 123 124 127 128 123 111 114 116 112 105 103
318 256 242 245 251 251 247 247 258 269 232 163 167 184 183 177 181 171 167 165 158 147 147 152 151 152 149 144 144 144 144 142 141 138 138 135 131 128 118 107 104 110 107 108
221 245 251 254 257 259 251 226 230 227 221 78 117 87 197 193 165 166 169 164 160 162 161 163 162 156 152 154 157 153 150 147 149 139 119 110 93 83 80 91 91 101 109 105
239 249 256 261 263 247 251 239 220 204 139 243 150 195 244 200 182 180 177 173 169 167 164 163 163 160 162 161 153 147 147 144 143 136 134 140 139 143 156 150 129 109 108 113
238 239 247 254 256 252 233 246 221 165 141 104 6 155 263 186 197 199 186 182 176 172 169 169 168 165 161 155 149 145 138 133 133 133 141 141 139 140 134 126 119 104 95 105
243 251 237 243 257 236 208 13 24 49 75 36 247 184 257 211 209 198 186 183 178 174 172 169 165 157 155 152 149 144 139 136 134 131 134 139 142 140 136 135 133 120 101 92
277 278 261 242 273 311 56 77 23 358 8 258 255 212 246 225 206 191 182 180 177 174 171 167 164 162 161 159 157 153 148 144 143 137 137 141 142 144 148 152 150 141 129 123
229 278 265 222 189 211 218 147 163 197 232 266 285 242 259 255 215 185 174 172 172 173 174 173 171 169 167 165 162 160 158 155 153 147 144 141 140 142 144 149 148 152 153 153
197 247 271 269 188 151 152 167 165 138 151 275 277 288 299 292 148 158 165 170 175 177 176 175 174 172 170 168 169 169 164 159 159 156 147 144 144 146 145 145 140 145 150 149
178 248 281 287 55 72 136 150 99 120 146 242 279 257 242 226 183 171 173 179 179 177 175 175 176 175 174 172 171 169 166 165 163 158 157 154 151 149 147 140 141 145 148 140
100 189 290 340 143 194 76 76 100 117 144 158 237 262 224 208 195 182 183 182 180 178 177 177 178 176 173 170 170 169 169 163 164 164 160 151 155 151 147 145 151 150 148 149
30 136 250 256 239 183 153 148 139 147 193 167 181 264 259 204 199 186 184 184 182 178 178 177 176 172 171 173 173 173 173 171 171 166 160 160 159 152 152 156 159 155 155 163
72 97 27 337 339 15 90 121 143 136 126 156 181 261 280 203 198 188 182 181 180 177 175 175 175 175 176 176 176 177 177 175 171 166 164 163 163 161 163 165 166 164 164 171
120 133 172 200 231 216 204 205 162 134 150 187 217 242 267 230 207 196 189 181 181 179 177 176 178 179 179 178 177 177 179 175 170 168 168 171 173 173 172 171 172 175 172 173
105 159 222 238 246 217 221 239 212 191 187 185 221 225 232 216 207 195 186 178 177 177 177 179 181 180 178 177 178 178 178 176 173 170 174 180 178 173 170 172 176 179 180 185
93 164 266 302 263 265 263 258 245 225 201 210 219 242 242 216 203 190 183 176 178 180 180 181 181 180 179 178 179 178 179 177 172 174 180 178 175 174 175 178 178 178 187 190
180 152 146 268 296 339 281 256 234 216 195 179 211 232 227 201 199 193 192 185 186 183 180 181 182 183 182 181 179 180 179 174 174 178 178 177 176 178 182 184 180 184 190 189
174 154 152 199 84 231 244 253 213 174 215 224 230 245 209 204 205 197 193 191 190 185 181 182 181 181 180 177 175 175 171 172 175 178 180 179 178 182 183 182 186 191 187 189
175 157 152 158 205 254 274 274 236 157 302 289 259 266 257 228 9 273 215 197 194 188 182 181 180 177 174 173 170 167 171 173 176 181 183 183 182 182 183 187 191 191 186 192
77 126 139 158 186 229 247 289 299 101 306 300 285 262 258 106 163 255 233 199 190 185 178 173 168 165 169 172 166 165 171 175 183 186 185 182 182 183 188 191 190 185 185 195
9 23 161 185 211 254 267 302 32 144 236 294 352 339 165 194 211 234 218 194 184 181 177 168 164 169 174 168 164 169 174 184 187 180 176 177 181 184 186 185 184 183 185 189
216 182 202 173 194 255 317 9 170 219 260 301 331 352 313 253 246 217 177 181 172 169 165 163 165 171 169 166 166 172 184 185 172 167 171 176 177 182 184 179 184 184 183 191
208 203 199 190 214 260 298 265 256 215 245 274 305 328 1 245 126 114 100 149 158 162 163 161 160 162 166 170 172 180 184 168 164 167 174 177 178 181 174 176 182 182 185 193
257 193 174 260 277 301 322 319 316 295 265 282 310 351 45 78 80 69 78 104 136 146 155 151 151 155 163 172 176 177 167 163 164 171 176 176 178 182 181 182 184 187 192 198
232 190 214 238 269 327 337 333 319 328 352 25 23 10 8 73 67 67 86 90 106 125 140 146 152 156 160 159 162 164 160 159 165 172 176 178 181 185 189 192 195 197 204 199
221 186 184 222 236 223 276 305 339 22 27 35 33 10 0 52 77 79 85 87 95 105 113 123 132 139 143 143 146 154 156 159 162 167 173 176 177 181 183 187 208 220 213 213